EDT,Max TemperatureF,Mean TemperatureF,Min TemperatureF,Max Dew PointF,MeanDew PointF,Min DewpointF,Max Humidity, Mean Humidity, Min Humidity, Max Sea Level PressureIn, Mean Sea Level PressureIn, Min Sea Level PressureIn, Max VisibilityMiles, Mean VisibilityMiles, Min VisibilityMiles, Max Wind SpeedMPH, Mean Wind SpeedMPH, Max Gust SpeedMPH,PrecipitationIn, CloudCover, Events, WindDirDegrees
2012-6-1,54,51,46,49,47,42,89,84,71,29.80,29.74,29.69,10,8,2,18,13,26,0.14,7,Rain,325
2012-6-2,73,60,48,52,46,42,86,59,35,29.80,29.76,29.73,10,10,10,18,12,31,0.01,3,Thunderstorm,244
2012-6-3,79,66,54,54,48,39,90,56,25,29.83,29.81,29.79,10,10,7,23,11,29,0.00,1,,263
2012-6-4,78,68,57,51,48,44,77,52,30,29.91,29.85,29.79,10,10,10,13,5,21,0.00,1,,360
2012-6-5,72,62,53,49,46,42,83,57,35,30.02,29.98,29.91,10,10,10,15,8,21,0.00,4,,44
2012-6-6,79,62,48,49,45,41,90,57,28,30.09,30.06,30.02,10,10,10,13,3,,0.00,0,,22
2012-6-7,82,66,51,51,47,41,89,53,25,30.13,30.09,30.07,10,10,7,13,3,18,0.00,0,,351
2012-6-8,87,67,48,53,45,39,90,50,19,30.10,30.04,29.94,10,10,10,9,3,,0.00,0,,251
2012-6-9,90,74,60,56,50,46,70,43,23,30.01,29.95,29.90,10,10,10,15,7,20,0.00,0,,213
2012-6-10,93,78,62,58,54,50,72,46,24,30.02,29.97,29.93,10,10,10,13,6,,0.00,,,166
2012-6-11,88,78,68,66,63,57,73,60,45,29.94,29.88,29.82,10,10,10,15,8,21,0.00,6,Thunderstorm,183
2012-6-12,75,68,57,64,49,41,78,50,33,30.13,29.98,29.83,10,10,10,22,11,30,0.00,0,,312
2012-6-13,75,62,48,46,40,34,80,47,22,30.22,30.17,30.12,10,10,10,12,6,,0.00,0,,34
2012-6-14,86,68,52,50,42,32,77,41,15,30.20,30.14,30.08,10,10,10,12,7,28,0.00,0,,118
2012-6-15,91,73,55,54,49,42,77,43,18,30.15,30.12,30.08,10,10,10,10,5,,0.00,0,,127
2012-6-16,95,80,66,65,60,52,71,54,32,30.12,30.04,29.94,10,10,8,18,8,28,0.00,1,Rain-Thunderstorm,169
2012-6-17,84,75,66,68,62,50,94,70,32,29.95,29.90,29.85,10,9,2,16,11,25,0.05,4,Rain,241
2012-6-18,93,78,62,68,63,58,87,60,38,29.89,29.82,29.76,10,10,10,21,9,33,0.00,1,,192
2012-6-19,95,84,73,66,63,59,66,48,34,30.01,29.97,29.89,10,10,10,17,13,24,0.00,0,,214
2012-6-20,95,83,73,62,60,54,68,46,27,30.09,30.03,29.94,10,10,10,20,11,25,0.00,0,,201
2012-6-21,90,77,63,66,62,59,87,60,42,29.97,29.93,29.89,10,10,10,20,10,24,0.00,2,,251
2012-6-22,86,70,57,62,54,46,100,68,28,30.00,29.98,29.95,10,6,0,10,2,18,0.00,1,Fog,329
2012-6-23,88,70,55,57,52,46,87,53,26,30.05,30.02,29.99,10,10,10,9,1,,0.00,1,,284
2012-6-24,91,78,66,60,57,51,79,50,28,30.03,29.97,29.91,10,10,10,13,4,17,0.00,3,,294
2012-6-25,79,71,61,60,49,39,79,49,24,30.05,30.01,29.94,10,10,10,17,9,24,0.00,1,,20
2012-6-26,82,66,51,51,45,37,89,50,19,30.10,30.03,29.96,10,10,10,8,2,20,0.00,0,,72
2012-6-27,91,73,55,52,48,44,84,45,20,30.04,29.94,29.84,10,10,10,15,6,24,0.00,0,,198
2012-6-28,102,88,73,73,63,50,63,44,34,29.86,29.79,29.73,10,10,9,18,9,25,0.00,0,,249
2012-6-29,89,77,66,70,64,55,90,66,34,30.02,29.87,29.75,10,9,2,44,6,61,0.32,2,Rain-Thunderstorm,286
2012-6-30,89,78,68,72,67,64,90,71,48,29.94,29.85,29.82,10,9,5,21,8,26,0.22,1,Rain-Thunderstorm,239